Regional Weather Roundup
Issued by NWS

Home | Current Version | Previous Version | Text Only | Print | Product List | Glossary Off
Versions: 1 2 3 4 5 6 7 8 9 10 11 12 13 14 15 16 17 18 19 20 21 22 23 24 25 26 27 28 29 30 31 32 33 34 35 36 37 38 39 40 41 42 43 44 45 46 47 48 49 50

000
ASUS43 KLOT 130010
RWRIL

ILLINOIS REGIONAL WEATHER ROUNDUP
NATIONAL WEATHER SERVICE CHICAGO/ROMEOVILLE IL
700 PM CDT SAT JUL 12 2014

NOTE: "FAIR" INDICATES FEW OR NO CLOUDS BELOW 12,000 FEET WITH NO
SIGNIFICANT WEATHER AND/OR OBSTRUCTIONS TO VISIBILITY.

* THESE STATIONS ARE NOT UNDER NWS QUALITY CONTROL. THEY ALSO MAY NOT
  REPORT WEATHER SUCH AS PRECIPITATION OR FOG.

ILZ001-002-007-009-015-016-024-130100-
NORTHWEST ILLINOIS

CITY           SKY/WX    TMP DP  RH WIND       PRES   REMARKS
MOLINE         PTSUNNY   84  74  71 S6        29.89F HX  91
6HR MIN TEMP:  81; 6HR MAX TEMP:  88;

STERLING*      CLOUDY    79  75  89 CALM      29.90F THUNDER HX  82
SAVANNA*       CLOUDY    80  75  83 CALM      29.88F HX  85
$$

ILZ003-004-008-010-011-017-018-130100-
NORTH CENTRAL ILLINOIS

CITY           SKY/WX    TMP DP  RH WIND       PRES   REMARKS
ROCKFORD       CLOUDY    80  71  74 S6        29.91F HX  84
6HR MIN TEMP:  74; 6HR MAX TEMP:  81;

FREEPORT*      LGT RAIN  76  72  88 S3        29.93F
ROCHELLE*      CLOUDY    79  74  85 CALM      29.91F HX  82
DE KALB*       CLOUDY    76  73  88 SE7       29.92F
PERU*          PTSUNNY   84  74  73 SW7       29.91F HX  91
$$

ILZ005-006-012>014-019>023-130100-
NORTHEAST ILLINOIS

CITY           SKY/WX    TMP DP  RH WIND       PRES   REMARKS
CHICAGO-OHARE  CLOUDY    79  70  74 SW3       29.93F HX  82
6HR MIN TEMP:  76; 6HR MAX TEMP:  80;

CHICAGO-MIDWAY CLOUDY    81  74  79 SW8       29.93F HX  86
6HR MIN TEMP:  78; 6HR MAX TEMP:  81;

AURORA         CLOUDY    80  73  79 CALM      29.93F HX  84
6HR MIN TEMP:  76; 6HR MAX TEMP:  80;

LANSING*       CLOUDY    77  72  83 SW8       29.95F
JOLIET*        CLOUDY    79  74  84 S3        29.93F HX  82
WAUKEGAN       CLOUDY    78  70  76 S6        29.92F HX  80
6HR MIN TEMP:  75; 6HR MAX TEMP:  80;

DUPAGE AIRPORT CLOUDY    79  73  82 S3        29.93F HX  82
6HR MIN TEMP:  77; 6HR MAX TEMP:  80;

KANKAKEE*      PTSUNNY   81  76  85 S10       29.95F HX  87
WHEELING       CLOUDY    81  71  71 W5        29.94F HX  85
6HR MIN TEMP:  76; 6HR MAX TEMP:  81;

MORRIS*        CLOUDY    81  78  90 CALM      29.92F HX  88
ROMEOVILLE*    CLOUDY    78  74  87 S3        29.93F HX  81
NORTHERLY ISL    N/A     78  71  79 W5          N/A  HX  80
$$

LMZ740>746-130100-
SOUTHERN LAKE MICHIGAN

STATION/POSITION SKY/WX   TEMP    WIND        PRES    VSBY  WAVE
                          AIR SEA DIR/SP/G                  HT/PER
                          (F)     (DEG/KT/KT) (MB)    (MI)  (FT/S)
SOUTHERN BUOY              63 61  160/  8/ 10 1014.2F         1/ 4
WAUKEGAN HARBOR            79     240/  8/  9 1014.6F
HARRISON CRIB              78     250/ 10/ 15   N/A
BURNHAM HARBOR             78     210/  4/ 10   N/A
CALUMET HARBOR             78     200/  6/  8 1014.7F
BURNS HARBOR               77     200/ 12/ 19 1015.2S
MICHIGAN CITY              77     170/ 10/ 13   N/A
$$

ILZ025>027-034>036-040-047-049-050-058-095>099-130100-
WEST-CENTRAL ILLINOIS

CITY           SKY/WX    TMP DP  RH WIND       PRES   REMARKS
QUINCY         SUNNY     87  73  62 S12       29.94F HX  94
GALESBURG*     MOSUNNY   84  76  74 S7        29.92S HX  93
MACOMB*        SUNNY     86  73  65 S8G22     29.94F HX  93
JACKSONVILLE*  MOSUNNY   88  75  65 S10       29.97F HX  98
PITTSFIELD*    MOSUNNY   87  73  62 S6        29.96F HX  94
$$

ILZ028>032-037-038-041>044-048-051>054-059>061-130100-
CENTRAL ILLINOIS

CITY           SKY/WX    TMP DP  RH WIND       PRES   REMARKS
PONTIAC        PTSUNNY   84  77  79 S13       29.93F HX  94
BLOOMINGTON    MOSUNNY   83  73  71 S15       29.97F HX  89
DECATUR        MOSUNNY   86  76  71 S10       29.98F HX  96
PEORIA         MOSUNNY   87  74  64 S15       29.92F HX  95
6HR MIN TEMP:  81; 6HR MAX TEMP:  90;

LACON*         PTSUNNY   83  74  73 S7        29.90F HX  90
LINCOLN*       MOSUNNY   88  73  61 S7        29.92F HX  95
SPRINGFIELD    MOSUNNY   88  75  65 S12       29.96F HX  97
6HR MIN TEMP:  86; 6HR MAX TEMP:  90;

TAYLORVILLE    MOSUNNY   84  73  70 S8        29.98F HX  91
$$

ILZ033-039-045-046-055>057-062-063-130100-
EAST-CENTRAL ILLINOIS

CITY           SKY/WX    TMP DP  RH WIND       PRES   REMARKS
CHAMPAIGN      SUNNY     83  77  82 S8        29.99F HX  92
RANTOUL*       SUNNY     84  74  73 S9G16     29.99F HX  91
MATTOON        MOSUNNY   84  76  76 S9        30.00F HX  93
PARIS*         PTSUNNY   81  75  81 S8        30.02F HX  87
$$

ILZ079-100>102-130100-
SOUTHWEST ILLINOIS

CITY           SKY/WX    TMP DP  RH WIND       PRES   REMARKS
ALTON          PTSUNNY   88  72  58 CALM      30.00F HX  94
CAHOKIA*       MOSUNNY   91  74  57 S3        30.00F HX 100
SPARTA*        MOSUNNY   82  72  69 S6        30.04F HX  87
$$

ILZ064>066-069>071-074>076-080>082-084>086-088>090-092>094-130100-
SOUTH-CENTRAL ILLINOIS

CITY           SKY/WX    TMP DP  RH WIND       PRES   REMARKS
CARBONDALE     CLOUDY    88  75  65 S8        30.04F HX  97
6HR MIN TEMP:  86; 6HR MAX TEMP:  93;

CAIRO*         MOSUNNY   89  73  58 S7        30.06F HX  97
MARION         PTSUNNY   86  77  74 S8        30.05F HX  97
MT. VERNON     MOSUNNY   88  73  62 S9        30.04F HX  96
CENTRALIA*     MOSUNNY   89  70  53 S9        30.03F HX  94
SALEM*         MOSUNNY   90  75  61 S10       30.03S HX 100
METROPOLIS*    MOSUNNY   87  69  54 S5        30.06S HX  91
$$

ILZ067-068-072-073-078-083-087-091-130100-
SOUTHEAST ILLINOIS

CITY           SKY/WX    TMP DP  RH WIND       PRES   REMARKS
FLORA*         MOSUNNY   86  74  68 S9        30.03F HX  94
HARRISBURG*    MOSUNNY   85  73  69 S6        30.07S HX  91
ROBINSON*      MOSUNNY   85  76  72 S9        30.04F HX  95
CARMI*         SUNNY     84  76  77 S6        30.05S HX  93
$$

ABBREVIATIONS USED IN REMARKS
   TC - TEMPERATURE IN CELSIUS
  WCI - WIND CHILL INDEX
   HX - HEAT INDEX
  VSB - VISIBILITY
$$




USA.gov is the U.S. government's official web portal to all federal, state and local government web resources and services.